Las Vegas, Nevada (DRI) Weather observations

Data are for observation ending at time listed.
 Day   Time    Ave.   Ave.  Ave.  Vector   Max.   Stn.    Total    Solar   Ave.  
  of    of     Air    Rel.  Wind   Wind    Wind   Baro.  Precip.   Rad.    Soil  
Year   Day     Temp.  Hum.  Speed  Dir.    Gust   Pres.                    Temp. 
2026   (PST)    F      %     mph   deg.    mph     mb.     in.     W/m2     F   
------------------------------------------------------------------------------
 245    1:10   81.4    13    6.5   194     11.5   940.7    0.00       0    91.7
 245    1:20   81.1    13    6.6   185     14.5   940.7    0.00       0    91.5
 245    1:30   80.7    14    5.0   186     11.1   940.8    0.00       0    91.5
 245    1:40   80.5    14    4.9   204     10.5   940.9    0.00       0    91.4
 245    1:50   80.3    14    6.7   183     11.9   940.7    0.00       0    91.2
 245    2:00   80.1    14    7.2   197     15.0   940.7    0.00       0    91.1
 245    2:10   79.9    14   10.4   184     17.5   940.5    0.00       0    90.8
 245    2:20   79.5    14    8.4   188     15.6   940.4    0.00       0    90.7
 245    2:30   79.5    14    7.7   188     13.8   940.4    0.00       0    90.5
 245    2:40   79.7    13    5.3   182     15.2   940.4    0.00       0    90.4
 245    2:50   79.7    13    3.3   189      9.6   940.6    0.00       0    90.3
 245    3:00   79.4    13    3.1   170      8.7   940.6    0.00       0    90.2
 245    3:10   78.9    13    1.9   155      7.4   940.7    0.00       0    90.2
 245    3:20   78.9    13    2.2   194      7.7   940.7    0.00       0    90.1
 245    3:30   79.0    13    3.3   178      9.5   940.6    0.00       0    90.0
 245    3:40   78.9    13    1.5   145      7.5   940.8    0.00       0    89.9
 245    3:50   78.2    14    1.9   151      9.3   940.8    0.00       0    89.7
 245    4:00   78.5    13    2.6   164      8.6   940.8    0.00       0    89.6
 245    4:10   78.4    13    2.6   170      6.4   940.8    0.00       0    89.5
 245    4:20   78.2    13    2.7   172      9.9   940.9    0.00       0    89.3
 245    4:30   78.1    13    1.8   148      7.7   941.0    0.00       0    89.2
 245    4:40   77.9    13    2.0   201      6.7   941.0    0.00       0    89.0
 245    4:50   78.4    13    5.2   184     12.6   940.9    0.00       0    88.9
 245    5:00   78.0    13    5.5   178     12.7   941.0    0.00       0    88.7
 245    5:10   77.8    13    6.5   174     12.8   941.1    0.00       1    88.5
 245    5:20   77.3    13    5.2   183     11.2   941.1    0.00       4    88.4
 245    5:30   77.1    13    3.7   178      9.1   941.3    0.00       7    88.3
 245    5:40   77.1    13    3.0   170      7.7   941.4    0.00      11    88.2
 245    5:50   77.0    14    2.7   166      5.2   941.5    0.00      13    88.1
 245    6:00   77.2    13    3.2   169      9.7   941.5    0.00      15    88.0
 245    6:10   77.7    13    4.4   172      9.3   941.6    0.00      17    87.9
 245    6:20   78.2    13    5.3   180     12.8   941.6    0.00      18    87.8
 245    6:30   78.3    13    6.1   179     16.4   941.6    0.00      20    87.6
 245    6:40   78.9    13    6.3   193     13.4   941.5    0.00      21    87.5
 245    6:50   79.3    13    6.3   182     17.3   941.5    0.00      21    87.4
 245    7:00   79.7    13    6.4   190     13.2   941.6    0.00      22    87.3
 245    7:10   80.2    13    6.9   192     13.3   941.6    0.00      23    87.2
 245    7:20   80.7    13    6.9   186     12.7   941.7    0.00      24    87.2
 245    7:30   81.3    12    6.2   190     11.7   941.7    0.00      25    87.1
 245    7:40   81.8    12    6.1   194     13.5   941.9    0.00      27    87.1
 245    7:50   82.6    12    4.3   212     10.3   942.1    0.00      30    87.2
 245    8:00   82.8    12    5.1   200     11.5   942.1    0.00      34    87.1
 245    8:10   83.3    12    5.1   202     11.9   942.0    0.00      64    87.1
 245    8:20   83.7    12    6.0   186     16.7   942.0    0.00      54    87.1
 245    8:30   83.8    11    6.7   188     14.8   942.1    0.00     147    87.1
 245    8:40   84.2    11    6.6   184     15.4   942.2    0.00     123    87.1
 245    8:50   84.8    11    6.6   189     11.3   942.2    0.00     123    87.1
 245    9:00   85.6    10    5.1   198     10.7   942.3    0.00     158    87.2
 245    9:10   85.7    10    5.9   188     11.2   942.4    0.00     307    87.2
 245    9:20   86.2    10    5.5   188     11.4   942.3    0.00     596    87.3
 245    9:30   86.8    10    5.8   189     12.0   942.2    0.00     732    87.3
 245    9:40   87.4    10    8.2   175     17.0   942.1    0.00     755    87.4
 245    9:50   88.2     9    9.6   175     19.0   942.1    0.00     775    87.7
 245   10:00   88.6     9    9.8   183     18.6   942.0    0.00     794    88.0
 245   10:10   89.2     8    9.2   178     20.7   942.0    0.00     812    88.5
 245   10:20   89.5     9    9.5   178     17.5   942.0    0.00     828    89.1
 245   10:30   89.5     9    8.7   188     15.6   942.1    0.00     840    89.8
 245   10:40   89.7     9    8.1   191     17.0   942.1    0.00     855    90.6
 245   10:50   90.4     9    7.9   180     15.6   942.1    0.00     865    91.3
 245   11:00   90.2     9    8.6   187     15.6   942.0    0.00     874    92.1
 245   11:10   90.7     9    8.8   182     18.7   941.7    0.00     881    92.8
 245   11:20   91.1     8    8.7   184     18.6   941.6    0.00     887    93.5
 245   11:30   92.0     8    7.8   189     18.0   941.6    0.00     892    94.2
 245   11:40   92.3     8    7.2   176     15.1   941.5    0.00     896    94.9
 245   11:50   92.2     8    8.7   188     19.6   941.3    0.00     897    95.5
 245   12:00   92.6     8    8.8   173     16.7   941.1    0.00     900    96.2
 245   12:10   92.7     7    8.7   183     15.4   941.0    0.00     898    96.8
 245   12:20   93.5     7    7.0   202     16.0   940.8    0.00     893    97.3
 245   12:30   93.5     7    7.8   192     16.4   940.8    0.00     886    97.9
 245   12:40   93.5     7    8.3   185     15.1   940.6    0.00     879    98.4
 245   12:50   94.1     7    8.3   181     20.7   940.5    0.00     871    99.0
 245   13:00   94.0     7    8.3   175     20.4   940.4    0.00     859    99.5
 245   13:10   95.2     7    8.0   182     18.2   940.2    0.00     847    100.0
 245   13:20   94.4     7    8.0   184     15.9   940.2    0.00     831    100.4
 245   13:30   95.3     7    6.2   191     12.5   940.0    0.00     817    100.9
 245   13:40   94.9     7    7.7   185     14.0   939.8    0.00     801    101.3
 245   13:50   94.8     7    7.9   183     14.6   939.6    0.00     783    101.7
 245   14:00   94.5     7    8.5   189     21.1   939.5    0.00     763    102.1
 245   14:10   94.5     7    9.0   178     17.5   939.4    0.00     743    102.4
 245   14:20   94.4     7    8.7   191     17.2   939.4    0.00     720    102.7
 245   14:30   94.7     7    8.5   185     16.0   939.3    0.00     696    102.8
 245   14:40   94.4     7    8.9   191     18.9   939.2    0.00     670    102.9
 245   14:50   94.6     7    8.4   185     16.1   939.0    0.00     644    102.8
 245   15:00   95.1     7    6.6   191     13.7   938.9    0.00     615    102.8
 245   15:10   95.4     7    7.8   181     14.8   938.8    0.00     586    102.7
 245   15:20   94.5     7    7.5   192     17.0   938.8    0.00     537    102.5
 245   15:30   94.5     7    6.9   193     17.3   938.8    0.00     524    102.3
 245   15:40   94.4     8    7.0   182     13.2   938.7    0.00     482    102.1
 245   15:50   94.2     7    7.9   189     15.4   938.8    0.00     452    101.8
 245   16:00   94.2     8    8.2   187     15.2   938.6    0.00     393    101.5
 245   16:10   93.3     8    7.6   186     16.7   938.6    0.00     222    101.2
 245   16:20   93.0     8    7.4   192     13.6   938.6    0.00     301    100.9
 245   16:30   93.3     8    7.6   193     14.5   938.6    0.00     336    100.6
 245   16:40   93.4     8    7.3   194     15.2   938.6    0.00     291    100.3
 245   16:50   92.8     8    9.4   183     15.9   938.6    0.00     252    100.0
 245   17:00   92.6     8    8.9   186     16.4   938.6    0.00     218    99.6
 245   17:10   92.5     8    8.2   188     18.6   938.6    0.00     187    99.4
 245   17:20   92.1     8    9.3   179     18.2   938.5    0.00     155    99.1
 245   17:30   91.7     8    7.5   185     15.3   938.6    0.00     122    98.8
 245   17:40   90.9     9    7.7   182     13.6   938.5    0.00      40    98.5
 245   17:50   90.5     9    7.5   192     15.8   938.6    0.00      15    98.2
 245   18:00   90.3     9    7.2   190     14.7   938.5    0.00       9    98.0
 245   18:10   90.0     9    8.1   185     14.4   938.5    0.00       5    97.7
 245   18:20   89.7     9    8.2   186     14.5   938.5    0.00       2    97.4
 245   18:30   89.4     9    7.8   190     13.9   938.5    0.00       0    97.1
 245   18:40   89.1    10    6.3   192     11.2   938.4    0.00       0    96.9
 245   18:50   88.9    10    6.4   182     11.4   938.5    0.00       0    96.7
 245   19:00   88.8    10    5.0   184      8.8   938.6    0.00       0    96.5
 245   19:10   88.4    10    4.8   172      8.8   938.6    0.00       0    96.2
 245   19:20   88.2    10    4.7   186     14.9   938.8    0.00       0    96.0
 245   19:30   88.0    10    3.4   173      8.0   938.9    0.00       0    95.8
 245   19:40   87.8    10    3.6   170      7.6   939.0    0.00       0    95.6
 245   19:50   87.8    10    3.2   168      8.2   939.1    0.00       0    95.4
 245   20:00   87.5    11    1.8   164      5.9   939.2    0.00       0    95.2
 245   20:10   87.4    10    2.8   171      7.3   939.4    0.00       0    95.0
 245   20:20   87.2    11    2.8   178      5.8   939.5    0.00       0    94.9
 245   20:30   87.0    11    4.3   179     10.6   939.5    0.00       0    94.7
 245   20:40   87.0    11    3.5   177      6.7   939.6    0.00       0    94.5
 245   20:50   86.6    11    3.6   188      6.2   939.4    0.00       0    94.3
 245   21:00   86.2    11    4.2   186      7.0   939.4    0.00       0    94.1
 245   21:10   85.9    11    4.7   178      8.1   939.3    0.00       0    93.9
 245   21:20   85.0    11    5.2   174     10.4   939.2    0.00       0    93.7
 245   21:30   84.6    12    5.9   172     11.4   939.2    0.00       0    93.5
 245   21:40   85.2    11    5.9   176     16.7   939.3    0.00       0    93.3
 245   21:50   85.8    11    6.5   187     12.2   939.3    0.00       0    93.2
 245   22:00   85.7    11    6.5   180     12.5   939.4    0.00       0    92.9
 245   22:10   85.5    12    5.9   171     11.5   939.4    0.00       0    92.8
 245   22:20   84.6    11    4.6   172     10.1   939.6    0.00       0    92.6
 245   22:30   83.7    12    3.8   172      7.3   939.6    0.00       0    92.5
 245   22:40   83.1    12    3.6   173      7.2   939.7    0.00       0    92.4
 245   22:50   83.0    13    3.7   190      7.7   939.7    0.00       0    92.3
 245   23:00   83.2    13    4.7   178      8.0   939.8    0.00       0    92.2
 245   23:10   83.2    13    6.4   182     13.6   939.7    0.00       0    92.0
 245   23:20   83.0    14    6.0   181      9.9   939.7    0.00       0    91.8
 245   23:30   82.7    14    5.8   172     11.0   939.7    0.00       0    91.7
 245   23:40   82.3    14    5.9   180     10.5   939.7    0.00       0    91.5
 245   23:50   81.9    15    6.1   175     13.1   939.6    0.00       0    91.3
 246    0:00   81.8    15    6.5   178     13.5   939.7    0.00       0    91.2
 246    0:10   81.7    16    7.4   172     13.4   939.7    0.00       0    91.0
 246    0:20   81.4    17    7.5   179     14.4   939.7    0.00       0    90.9
 246    0:30   81.0    18    8.0   175     15.0   939.6    0.00       0    90.8
 246    0:40   80.6    18    6.3   186     11.2   939.7    0.00       0    90.6
 246    0:50   80.6    18    7.0   193     13.6   939.7    0.00       0    90.5
 246    1:00   80.9    18    6.9   197     15.6   939.6    0.00       0    90.4

Return to Las Vegas, Nevada graphs page.


Western Regional Climate Center,wrcc@dri.edu